Caldwell, ID

5:25 AM MST on February 24, 2018 (GMT -0700)
Caldwell Industrial

Weather History for KEUL - September, 2013

Change the Weather History Date:

Tuesday, September 17, 2013

  Actual Average (KBOI) Record (KBOI)
Temperature  
Mean Temperature 66 °F -  
Max Temperature 75 °F 76 °F 95 °F (1981)
Min Temperature 55 °F 48 °F 24 °F (1965)
Cooling Degree Days 1    
Growing Degree Days 16 (Base 50)    
Moisture  
Dew Point 43 °F    
Average Humidity 48    
Maximum Humidity 63    
Minimum Humidity 36    
Precipitation  
Precipitation 0.00 in - - ()
Sea Level Pressure  
Sea Level Pressure 29.73 in    
Wind  
Wind Speed 8 mph (NW)    
Max Wind Speed 24 mph    
Max Gust Speed 31 mph    
Visibility 10 miles    
Events      
Averages and records for this station are not official NWS values.
T = Trace of Precipitation, MM = Missing Value Source: NWS Daily Summary

Daily Weather History Graph

Daily Weather History Graph

Search for Another Location

Airport or City:

Trip Planner

Search our weather history database for the weather conditions in past years. The results will help you decide how hot, cold, wet, or windy it might be!

Date:

Astronomy

Sep. 17, 2013 Rise Set
Actual Time 7:28 AM MDT 7:52 PM MDT
Civil Twilight 6:59 AM MDT 8:21 PM MDT
Nautical Twilight 6:25 AM MDT 8:54 PM MDT
Astronomical Twilight 5:50 AM MDT 9:29 PM MDT
Moon 6:43 PM MDT (9/17) 5:25 AM MDT (9/17)
Length of Visible Light 13h 21m
Length of Day
12h 23m
Waxing Gibbous, 96% of the Moon is Illuminated
Sep 17
Waxing Gibbous
Sep 19
Full
Sep 26
Last Quarter
Oct 4
New
Oct 11
First Quarter

Hourly Weather History & Observations

Time (MDT) Temp. Dew Point Humidity Pressure Visibility Wind Dir Wind Speed Gust Speed Precip Events Conditions
12:15 AM 60.8 °F 42.8 °F 52% 29.77 in 10.0 mi WNW 8.1 mph - N/A   Clear
12:35 AM 60.8 °F 42.8 °F 52% 29.77 in 10.0 mi WNW 8.1 mph - N/A   Clear
12:55 AM 60.8 °F 42.8 °F 52% 29.77 in 10.0 mi WNW 8.1 mph - N/A   Clear
1:15 AM 59.0 °F 42.8 °F 55% 29.77 in 10.0 mi WNW 9.2 mph - N/A   Clear
1:35 AM 60.8 °F 44.6 °F 55% 29.77 in 10.0 mi West 8.1 mph - N/A   Clear
1:55 AM 60.8 °F 44.6 °F 55% 29.77 in 10.0 mi West 8.1 mph - N/A   Clear
2:15 AM 60.8 °F 44.6 °F 55% 29.76 in 10.0 mi West 10.4 mph - N/A   Clear
2:35 AM 62.6 °F 44.6 °F 52% 29.76 in 10.0 mi West 9.2 mph - N/A   Clear
2:55 AM 60.8 °F 44.6 °F 55% 29.76 in 10.0 mi West 8.1 mph - N/A   Clear
3:15 AM 60.8 °F 44.6 °F 55% 29.75 in 10.0 mi West 9.2 mph - N/A   Clear
3:35 AM 60.8 °F 44.6 °F 55% 29.74 in 10.0 mi WNW 9.2 mph - N/A   Clear
3:55 AM 62.6 °F 44.6 °F 52% 29.74 in 10.0 mi WNW 11.5 mph - N/A   Partly Cloudy
4:15 AM 60.8 °F 44.6 °F 55% 29.73 in 10.0 mi WNW 9.2 mph - N/A   Partly Cloudy
4:35 AM 60.8 °F 44.6 °F 55% 29.71 in 10.0 mi WNW 9.2 mph - N/A   Clear
4:55 AM 60.8 °F 44.6 °F 55% 29.73 in 10.0 mi West 10.4 mph - N/A   Clear
5:15 AM 60.8 °F 44.6 °F 55% 29.70 in 10.0 mi West 9.2 mph - N/A   Scattered Clouds
5:35 AM 60.8 °F 44.6 °F 55% 29.72 in 10.0 mi West 10.4 mph - N/A   Scattered Clouds
5:55 AM 60.8 °F 44.6 °F 55% 29.72 in 10.0 mi WSW 9.2 mph - N/A   Partly Cloudy
6:15 AM 60.8 °F 42.8 °F 52% 29.72 in 10.0 mi West 8.1 mph - N/A   Scattered Clouds
6:35 AM 60.8 °F 42.8 °F 52% 29.69 in 10.0 mi NW 12.7 mph - N/A   Scattered Clouds
6:55 AM 60.8 °F 42.8 °F 52% 29.70 in 10.0 mi NNW 5.8 mph - N/A   Clear
7:15 AM 60.8 °F 42.8 °F 52% 29.71 in 10.0 mi WNW 9.2 mph - N/A   Clear
7:35 AM 59.0 °F 42.8 °F 55% 29.71 in 10.0 mi Calm Calm - N/A   Clear
7:55 AM 57.2 °F 44.6 °F 63% 29.70 in 10.0 mi NNW 3.5 mph - N/A   Clear
8:15 AM 60.8 °F 42.8 °F 52% 29.72 in 10.0 mi SW 5.8 mph - N/A   Scattered Clouds
8:35 AM 59.0 °F 44.6 °F 59% 29.69 in 2.5 mi NW 4.6 mph - N/A   Mostly Cloudy
8:55 AM 60.8 °F 44.6 °F 55% 29.71 in 10.0 mi West 8.1 mph - N/A   Partly Cloudy
9:15 AM 60.8 °F 44.6 °F 55% 29.70 in 10.0 mi West 4.6 mph - N/A   Clear
9:35 AM 60.8 °F 44.6 °F 55% 29.70 in 10.0 mi Calm Calm - N/A   Clear
9:55 AM 62.6 °F 42.8 °F 48% 29.70 in 10.0 mi West 3.5 mph - N/A   Clear
10:15 AM 62.6 °F 44.6 °F 52% 29.70 in 10.0 mi West 4.6 mph - N/A   Clear
10:35 AM 62.6 °F 42.8 °F 48% 29.69 in 10.0 mi NNW 4.6 mph - N/A   Clear
10:55 AM 62.6 °F 42.8 °F 48% 29.69 in 10.0 mi West 3.5 mph - N/A   Clear
11:15 AM 64.4 °F 42.8 °F 45% 29.69 in 10.0 mi Calm Calm - N/A   Clear
11:35 AM 64.4 °F 42.8 °F 45% 29.69 in 10.0 mi Calm Calm - N/A   Clear
11:55 AM 64.4 °F 42.8 °F 45% 29.69 in 10.0 mi NNW 4.6 mph - N/A   Clear
12:15 PM 64.4 °F 44.6 °F 49% 29.69 in 10.0 mi NW 4.6 mph - N/A   Clear
12:35 PM 64.4 °F 44.6 °F 49% 29.69 in 10.0 mi NW 6.9 mph - N/A   Clear
12:55 PM 66.2 °F 44.6 °F 46% 29.69 in 10.0 mi NNW 4.6 mph - N/A   Clear
1:15 PM 68.0 °F 44.6 °F 43% 29.69 in 10.0 mi NNW 4.6 mph - N/A   Clear
1:35 PM 68.0 °F 44.6 °F 43% 29.69 in 10.0 mi North 6.9 mph - N/A   Clear
1:55 PM 69.8 °F 44.6 °F 40% 29.68 in 10.0 mi North 6.9 mph - N/A   Clear
2:15 PM 71.6 °F 46.4 °F 41% 29.68 in 10.0 mi NE 8.1 mph - N/A   Clear
2:35 PM 73.4 °F 46.4 °F 38% 29.67 in 10.0 mi NE 4.6 mph - N/A   Clear
2:55 PM 73.4 °F 46.4 °F 38% 29.67 in 10.0 mi NNE 6.9 mph - N/A   Clear
3:15 PM 73.4 °F 46.4 °F 38% 29.66 in 10.0 mi North 5.8 mph - N/A   Clear
3:35 PM 73.4 °F 44.6 °F 36% 29.66 in 10.0 mi NNE 6.9 mph - N/A   Clear
3:55 PM 73.4 °F 46.4 °F 38% 29.66 in 10.0 mi NE 6.9 mph - N/A   Clear
4:15 PM 73.4 °F 46.4 °F 38% 29.65 in 10.0 mi Calm Calm - N/A   Clear
4:35 PM 75.2 °F 46.4 °F 36% 29.66 in 10.0 mi NW 4.6 mph - N/A   Clear
4:55 PM 75.2 °F 46.4 °F 36% 29.66 in 10.0 mi NNE 6.9 mph - N/A   Scattered Clouds
5:15 PM 75.2 °F 46.4 °F 36% 29.66 in 10.0 mi NW 17.3 mph 23.0 mph N/A   Mostly Cloudy
5:35 PM 73.4 °F 46.4 °F 38% 29.67 in 10.0 mi NNW 16.1 mph 20.7 mph N/A   Clear
5:55 PM 71.6 °F 46.4 °F 41% 29.68 in 10.0 mi NNW 15.0 mph 20.7 mph N/A   Clear
6:15 PM 69.8 °F 46.4 °F 43% 29.69 in 10.0 mi NNW 12.7 mph - N/A   Clear
6:35 PM 69.8 °F 44.6 °F 40% 29.71 in 10.0 mi NW 17.3 mph 25.3 mph N/A   Clear
6:55 PM 68.0 °F 42.8 °F 40% 29.73 in 10.0 mi NW 20.7 mph 27.6 mph N/A   Clear
7:15 PM 66.2 °F 39.2 °F 37% 29.74 in 10.0 mi NW 24.2 mph 31.1 mph N/A   Clear
7:35 PM 64.4 °F 39.2 °F 40% 29.75 in 10.0 mi NW 18.4 mph 27.6 mph N/A   Clear
7:55 PM 62.6 °F 39.2 °F 42% 29.77 in 10.0 mi NW 15.0 mph 25.3 mph N/A   Partly Cloudy
8:15 PM 62.6 °F 37.4 °F 39% 29.77 in 10.0 mi NW 20.7 mph 27.6 mph N/A   Partly Cloudy
8:35 PM 60.8 °F 39.2 °F 45% 29.78 in 10.0 mi NNW 13.8 mph - N/A   Partly Cloudy
8:55 PM 60.8 °F 39.2 °F 45% 29.79 in 10.0 mi NW 15.0 mph 20.7 mph N/A   Clear
9:15 PM 60.8 °F 39.2 °F 45% 29.80 in 10.0 mi NW 12.7 mph 17.3 mph N/A   Clear
9:35 PM 60.8 °F 39.2 °F 45% 29.81 in 10.0 mi NNW 9.2 mph - N/A   Clear
9:55 PM 57.2 °F 39.2 °F 51% 29.82 in 10.0 mi NNW 10.4 mph - N/A   Clear
10:15 PM 57.2 °F 39.2 °F 51% 29.83 in 10.0 mi NW 9.2 mph - N/A   Partly Cloudy
10:35 PM 57.2 °F 41.0 °F 55% 29.83 in 10.0 mi NW 6.9 mph - N/A   Mostly Cloudy
10:55 PM 57.2 °F 41.0 °F 55% 29.84 in 10.0 mi NW 6.9 mph - N/A   Mostly Cloudy
11:15 PM 57.2 °F 41.0 °F 55% 29.84 in 10.0 mi NW 11.5 mph - N/A   Mostly Cloudy
11:35 PM 57.2 °F 41.0 °F 55% 29.85 in 10.0 mi NW 9.2 mph - N/A   Scattered Clouds
11:55 PM 55.4 °F 39.2 °F 54% 29.86 in 10.0 mi NW 8.1 mph - N/A   Partly Cloudy